Weather History for KMFI - January, 2013

Change the Weather History Date:

Tuesday, January 1, 2013

  Actual Average Record
Temperature  
Mean Temperature 1 °F -  
Max Temperature 12 °F 21 °F 41 °F (1998)
Min Temperature -8 °F 6 °F -30 °F (1924)
Degree Days  
Heating Degree Days 64    
Moisture  
Dew Point -3 °F    
Average Humidity 76    
Maximum Humidity 87    
Minimum Humidity 59    
Precipitation  
Precipitation 0.00 in - - ()
Sea Level Pressure  
Sea Level Pressure 30.21 in    
Wind  
Wind Speed 7 mph (West)    
Max Wind Speed 9 mph    
Max Gust Speed -    
Visibility 10 miles    
Events      
Averages and records for this station are not official NWS values.
T = Trace of Precipitation, MM = Missing Value Source: NWS Daily Summary

Daily Weather History Graph

Daily Weather History Graph

Search for Another Location

Airport or City:

Trip Planner

Search our weather history database for the weather conditions in past years. The results will help you decide how hot, cold, wet, or windy it might be!

Date:

Astronomy

Jan. 01, 2013 Rise Set
Actual Time 7:37 AM CST 4:31 PM CST
Civil Twilight 7:04 AM CST 5:04 PM CST
Nautical Twilight 6:27 AM CST 5:41 PM CST
Astronomical Twilight 5:52 AM CST 6:17 PM CST
Moon 9:14 PM CST (1/1) 9:39 AM CST (1/1)
Length of Visible Light 10h 00m
Length of Day
8h 53m
Waning Gibbous, 83% of the Moon is Illuminated
Jan 1
Waning Gibbous
Jan 4
Last Quarter
Jan 11
New
Jan 18
First Quarter
Jan 26
Full

Hourly Weather History & Observations

Time (CST) Temp. Windchill Dew Point Humidity Pressure Visibility Wind Dir Wind Speed Gust Speed Precip Events Conditions
12:54 AM -5.1 °F -19.1 °F -9.0 °F 83% 30.25 in 10.0 mi WNW 6.9 mph - N/A   Clear
1:54 AM -6.0 °F -21.5 °F -9.9 °F 83% 30.25 in 10.0 mi NW 8.1 mph - N/A   Clear
2:54 AM -8.0 °F -23.9 °F -11.0 °F 86% 30.26 in 10.0 mi NW 8.1 mph - N/A   Clear
3:54 AM -7.1 °F -23.9 °F -11.0 °F 83% 30.25 in 10.0 mi NNW 9.2 mph - N/A   Clear
5:54 AM -8.0 °F -23.9 °F -11.0 °F 86% 30.28 in 10.0 mi NW 8.1 mph - N/A   Clear
7:54 AM -7.1 °F -19.9 °F -9.9 °F 87% 30.30 in 10.0 mi WNW 5.8 mph - N/A   Clear
8:54 AM -6.0 °F -20.1 °F -9.9 °F 83% 30.30 in 10.0 mi NW 6.9 mph - N/A   Clear
9:54 AM -2.9 °F -13.3 °F -7.1 °F 82% 30.29 in 10.0 mi WNW 4.6 mph - N/A   Clear
10:54 AM 1.0 °F -6.7 °F -4.0 °F 79% 30.27 in 10.0 mi WNW 3.5 mph - N/A   Clear
11:54 AM 6.1 °F -6.8 °F -0.9 °F 73% 30.23 in 10.0 mi WNW 8.1 mph - N/A   Clear
12:54 PM 7.0 °F -3.3 °F -2.0 °F 67% 30.22 in 10.0 mi West 5.8 mph - N/A   Clear
1:54 PM 8.1 °F -4.3 °F -2.0 °F 64% 30.20 in 10.0 mi WSW 8.1 mph - N/A   Clear
2:54 PM 10.9 °F 0.2 °F -0.9 °F 59% 30.19 in 10.0 mi West 6.9 mph - N/A   Clear
4:47 PM 8.6 °F -2.6 °F -0.4 °F 67% 30.09 in 10.0 mi West 6.9 mph - N/A   Mostly Cloudy
4:54 PM 9.0 °F -3.2 °F 1.0 °F 70% 30.19 in 10.0 mi West 8.1 mph - N/A   Overcast
5:54 PM 9.0 °F -3.2 °F 1.9 °F 73% 30.18 in 10.0 mi West 8.1 mph - 0.00 in   Overcast
6:54 PM 9.0 °F -3.2 °F 1.9 °F 73% 30.17 in 10.0 mi West 8.1 mph - N/A   Overcast
7:54 PM 9.0 °F -3.2 °F 1.0 °F 70% 30.17 in 10.0 mi WSW 8.1 mph - N/A   Overcast
8:01 PM 8.6 °F -4.7 °F 1.4 °F 73% 30.06 in 10.0 mi West 9.2 mph - N/A   Overcast
8:54 PM 10.0 °F -1.9 °F 3.0 °F 73% 30.15 in 10.0 mi West 8.1 mph - N/A   Overcast
9:54 PM 10.9 °F 1.4 °F 3.9 °F 73% 30.15 in 10.0 mi WSW 5.8 mph - N/A   Overcast
10:54 PM 10.9 °F 2.9 °F 3.9 °F 73% 30.14 in 10.0 mi WSW 4.6 mph - N/A   Overcast
11:54 PM 12.0 °F 2.7 °F 6.1 °F 77% 30.13 in 10.0 mi SW 5.8 mph - N/A   Overcast